Time,TemperatureF,DewpointF,PressureIn,WindDirection,WindDirectionDegrees,WindSpeedMPH,WindSpeedGustMPH,Humidity,HourlyPrecipIn,Conditions,Clouds,dailyrainin,SoftwareType,DateUTC
2013-10-30 00:00:00,49.5,11.2,17.72,SE,125,0.0,0.0,21,0.00,,---,0.00,VWS V12.07,2013-10-30 04:00:00,
2013-10-30 00:05:00,49.3,11.0,17.72,SE,126,0.0,0.0,21,0.00,,---,0.00,VWS V12.07,2013-10-30 04:05:00,
2013-10-30 00:10:00,49.1,10.9,17.72,SE,125,0.0,0.0,21,0.00,,---,0.00,VWS V12.07,2013-10-30 04:10:00,
2013-10-30 00:15:00,48.7,10.6,17.72,SE,125,0.0,0.0,21,0.00,,---,0.00,VWS V12.07,2013-10-30 04:15:00,
2013-10-30 00:20:00,48.4,10.3,17.72,SE,125,0.0,0.0,21,0.00,,---,0.00,VWS V12.07,2013-10-30 04:20:00,
2013-10-30 00:25:00,48.2,10.1,17.72,SE,125,0.0,0.0,21,0.00,,---,0.00,VWS V12.07,2013-10-30 04:25:00,
2013-10-30 00:30:00,48.0,11.0,17.72,SE,132,0.0,0.0,22,0.00,,---,0.00,VWS V12.07,2013-10-30 04:30:00,
2013-10-30 00:35:00,48.0,11.0,17.72,SE,132,0.0,0.0,22,0.00,,---,0.00,VWS V12.07,2013-10-30 04:35:00,
2013-10-30 00:40:00,48.2,10.1,17.72,SE,132,0.0,0.0,21,0.00,,---,0.00,VWS V12.07,2013-10-30 04:40:00,
2013-10-30 00:45:00,48.4,13.3,17.72,SE,138,0.0,0.0,24,0.00,,---,0.00,VWS V12.07,2013-10-30 04:45:00,
2013-10-30 00:50:00,48.4,13.3,17.72,SE,138,0.0,0.0,24,0.00,,---,0.00,VWS V12.07,2013-10-30 04:50:00,
2013-10-30 00:55:00,48.6,13.4,17.72,SSE,162,0.0,0.0,24,0.00,,---,0.00,VWS V12.07,2013-10-30 04:55:00,
2013-10-30 01:00:00,48.7,13.6,17.72,SSE,158,0.0,0.0,24,0.00,,---,0.00,VWS V12.07,2013-10-30 05:00:00,
2013-10-30 01:10:00,48.9,13.7,17.72,SE,146,0.0,0.0,24,0.00,,---,0.00,VWS V12.07,2013-10-30 05:10:00,
2013-10-30 01:20:00,48.9,13.7,17.72,SE,146,0.0,0.0,24,0.00,,---,0.00,VWS V12.07,2013-10-30 05:20:00,
2013-10-30 01:25:00,49.1,15.7,17.72,SE,146,0.0,0.0,26,0.00,,---,0.00,VWS V12.07,2013-10-30 05:25:00,
2013-10-30 01:35:00,49.1,15.7,17.72,SE,146,0.0,0.0,26,0.00,,---,0.00,VWS V12.07,2013-10-30 05:35:00,
2013-10-30 01:40:00,48.9,15.6,17.72,SE,146,0.0,0.0,26,0.00,,---,0.00,VWS V12.07,2013-10-30 05:40:00,
2013-10-30 01:50:00,48.7,15.4,17.72,SE,146,0.0,0.0,26,0.00,,---,0.00,VWS V12.07,2013-10-30 05:50:00,
2013-10-30 01:55:00,48.6,15.2,17.72,SE,146,0.0,0.0,26,0.00,,---,0.00,VWS V12.07,2013-10-30 05:55:00,
2013-10-30 02:05:00,48.6,16.1,17.72,SE,146,0.0,0.0,27,0.00,,---,0.00,VWS V12.07,2013-10-30 06:05:00,
2013-10-30 02:15:00,48.7,16.3,17.72,SE,146,0.0,0.0,27,0.00,,---,0.00,VWS V12.07,2013-10-30 06:15:00,
2013-10-30 02:20:00,48.7,17.1,17.72,SE,129,0.0,0.0,28,0.00,,---,0.00,VWS V12.07,2013-10-30 06:20:00,
2013-10-30 02:25:00,48.9,17.3,17.72,ENE,68,0.0,0.0,28,0.00,,---,0.00,VWS V12.07,2013-10-30 06:25:00,
2013-10-30 02:30:00,48.9,17.3,17.72,ENE,68,0.0,0.0,28,0.00,,---,0.00,VWS V12.07,2013-10-30 06:30:00,
2013-10-30 02:35:00,48.9,17.3,17.72,ENE,68,0.0,0.0,28,0.00,,---,0.00,VWS V12.07,2013-10-30 06:35:00,
2013-10-30 02:45:00,48.9,17.3,17.72,ENE,68,0.0,0.0,28,0.00,,---,0.00,VWS V12.07,2013-10-30 06:45:00,
2013-10-30 02:50:00,48.9,17.3,17.72,ENE,68,0.0,0.0,28,0.00,,---,0.00,VWS V12.07,2013-10-30 06:50:00,
2013-10-30 02:55:00,48.9,17.3,17.72,SE,137,0.0,0.0,28,0.00,,---,0.00,VWS V12.07,2013-10-30 06:55:00,
2013-10-30 03:00:00,48.7,17.1,17.72,SE,138,0.0,0.0,28,0.00,,---,0.00,VWS V12.07,2013-10-30 07:00:00,
2013-10-30 03:05:00,48.7,17.1,17.72,SE,138,0.0,0.0,28,0.00,,---,0.00,VWS V12.07,2013-10-30 07:05:00,
2013-10-30 03:15:00,48.7,17.1,17.72,SE,124,0.0,0.0,28,0.00,,---,0.00,VWS V12.07,2013-10-30 07:15:00,
2013-10-30 03:20:00,48.7,17.9,17.72,SE,128,0.0,0.0,29,0.00,,---,0.00,VWS V12.07,2013-10-30 07:20:00,
2013-10-30 03:30:00,48.9,18.1,17.72,SE,137,0.0,0.0,29,0.00,,---,0.00,VWS V12.07,2013-10-30 07:30:00,
2013-10-30 03:35:00,48.9,18.1,17.72,SE,137,0.0,0.0,29,0.00,,---,0.00,VWS V12.07,2013-10-30 07:35:00,
2013-10-30 03:40:00,48.9,18.1,17.72,SSE,168,0.0,0.0,29,0.00,,---,0.00,VWS V12.07,2013-10-30 07:40:00,
2013-10-30 03:45:00,48.9,18.1,17.72,SSE,167,0.0,0.0,29,0.00,,---,0.00,VWS V12.07,2013-10-30 07:45:00,
2013-10-30 03:55:00,49.1,18.2,17.72,SSE,153,0.0,0.0,29,0.00,,---,0.00,VWS V12.07,2013-10-30 07:55:00,
2013-10-30 04:00:00,49.1,19.0,17.72,SSE,150,3.6,4.0,30,0.00,,---,0.00,VWS V12.07,2013-10-30 08:00:00,
2013-10-30 04:05:00,49.3,19.2,17.72,SE,141,0.0,3.6,30,0.00,,---,0.00,VWS V12.07,2013-10-30 08:05:00,
2013-10-30 04:10:00,49.3,19.2,17.72,SE,126,0.0,0.0,30,0.00,,---,0.00,VWS V12.07,2013-10-30 08:10:00,
2013-10-30 04:15:00,49.5,20.9,17.72,NE,53,0.0,0.0,32,0.00,,---,0.00,VWS V12.07,2013-10-30 08:15:00,
2013-10-30 04:20:00,49.5,20.1,17.72,NE,53,0.0,0.0,31,0.00,,---,0.00,VWS V12.07,2013-10-30 08:20:00,
2013-10-30 04:25:00,49.5,20.1,17.72,NE,53,0.0,0.0,31,0.00,,---,0.00,VWS V12.07,2013-10-30 08:25:00,
2013-10-30 04:30:00,49.5,20.1,17.72,NE,53,0.0,0.0,31,0.00,,---,0.00,VWS V12.07,2013-10-30 08:30:00,
2013-10-30 04:35:00,49.5,20.1,17.72,NE,53,0.0,0.0,31,0.00,,---,0.00,VWS V12.07,2013-10-30 08:35:00,
2013-10-30 04:40:00,49.5,20.1,17.72,NE,53,0.0,0.0,31,0.00,,---,0.00,VWS V12.07,2013-10-30 08:40:00,
2013-10-30 04:45:00,49.6,21.0,17.72,NE,53,0.0,0.0,32,0.00,,---,0.00,VWS V12.07,2013-10-30 08:45:00,
2013-10-30 04:50:00,49.6,21.0,17.72,NE,53,0.0,0.0,32,0.00,,---,0.00,VWS V12.07,2013-10-30 08:50:00,
2013-10-30 04:55:00,49.6,21.0,17.72,NE,53,0.0,0.0,32,0.00,,---,0.00,VWS V12.07,2013-10-30 08:55:00,
2013-10-30 05:05:00,49.6,21.7,17.72,NE,53,0.0,0.0,33,0.00,,---,0.00,VWS V12.07,2013-10-30 09:05:00,
2013-10-30 05:10:00,49.6,21.7,17.72,ESE,106,0.0,0.0,33,0.00,,---,0.00,VWS V12.07,2013-10-30 09:10:00,
2013-10-30 05:15:00,49.6,21.7,17.72,ESE,106,0.0,0.0,33,0.00,,---,0.00,VWS V12.07,2013-10-30 09:15:00,
2013-10-30 05:20:00,49.8,21.9,17.72,South,187,0.0,0.0,33,0.00,,---,0.00,VWS V12.07,2013-10-30 09:20:00,
2013-10-30 05:25:00,49.8,21.9,17.72,SSW,192,0.0,0.0,33,0.00,,---,0.00,VWS V12.07,2013-10-30 09:25:00,
2013-10-30 05:30:00,49.8,21.9,17.72,SSW,192,0.0,0.0,33,0.00,,---,0.00,VWS V12.07,2013-10-30 09:30:00,
2013-10-30 05:35:00,49.8,21.9,17.72,SSW,192,0.0,0.0,33,0.00,,---,0.00,VWS V12.07,2013-10-30 09:35:00,
2013-10-30 05:40:00,49.8,21.9,17.72,SSW,192,0.0,0.0,33,0.00,,---,0.00,VWS V12.07,2013-10-30 09:40:00,
2013-10-30 05:45:00,50.0,22.0,17.72,SSW,192,0.0,0.0,33,0.00,,---,0.00,VWS V12.07,2013-10-30 09:45:00,
2013-10-30 05:50:00,50.0,22.0,17.72,SSW,192,0.0,0.0,33,0.00,,---,0.00,VWS V12.07,2013-10-30 09:50:00,
2013-10-30 05:55:00,50.2,22.2,17.72,SSW,192,0.0,0.0,33,0.00,,---,0.00,VWS V12.07,2013-10-30 09:55:00,
2013-10-30 06:00:00,50.2,22.2,17.72,SSW,192,0.0,0.0,33,0.00,,---,0.00,VWS V12.07,2013-10-30 10:00:00,
2013-10-30 06:05:00,50.2,22.2,17.72,SSW,192,0.0,0.0,33,0.00,,---,0.00,VWS V12.07,2013-10-30 10:05:00,
2013-10-30 06:15:00,50.4,22.4,17.72,SSW,192,0.0,0.0,33,0.00,,---,0.00,VWS V12.07,2013-10-30 10:15:00,
2013-10-30 06:20:00,50.4,22.4,17.72,SSW,192,0.0,0.0,33,0.00,,---,0.00,VWS V12.07,2013-10-30 10:20:00,
2013-10-30 06:25:00,50.4,23.1,17.72,SSW,192,0.0,0.0,34,0.00,,---,0.00,VWS V12.07,2013-10-30 10:25:00,
2013-10-30 06:30:00,50.5,23.2,17.72,SSW,192,0.0,0.0,34,0.00,,---,0.00,VWS V12.07,2013-10-30 10:30:00,
2013-10-30 06:35:00,50.4,22.4,17.72,SSW,192,0.0,0.0,33,0.00,,---,0.00,VWS V12.07,2013-10-30 10:35:00,
2013-10-30 06:40:00,50.4,22.4,17.72,SSW,192,0.0,0.0,33,0.00,,---,0.00,VWS V12.07,2013-10-30 10:40:00,
2013-10-30 06:45:00,50.2,22.2,17.72,SSW,192,0.0,0.0,33,0.00,,---,0.00,VWS V12.07,2013-10-30 10:45:00,
2013-10-30 06:50:00,50.2,22.9,17.72,SSW,192,0.0,0.0,34,0.00,,---,0.00,VWS V12.07,2013-10-30 10:50:00,
2013-10-30 06:55:00,50.5,23.2,17.72,SW,230,0.0,0.0,34,0.00,,---,0.00,VWS V12.07,2013-10-30 10:55:00,
2013-10-30 07:05:00,51.3,24.6,17.72,SSW,202,0.0,0.0,35,0.00,,---,0.00,VWS V12.07,2013-10-30 11:05:00,
2013-10-30 07:10:00,51.3,24.6,17.72,SSW,207,0.0,0.0,35,0.00,,---,0.00,VWS V12.07,2013-10-30 11:10:00,
2013-10-30 07:15:00,51.4,25.4,17.72,SSW,211,0.0,0.0,36,0.00,,---,0.00,VWS V12.07,2013-10-30 11:15:00,
2013-10-30 07:20:00,51.6,24.9,17.72,SSW,211,0.0,0.0,35,0.00,,---,0.00,VWS V12.07,2013-10-30 11:20:00,
2013-10-30 07:25:00,51.4,24.0,17.72,SSW,211,0.0,0.0,34,0.00,,---,0.00,VWS V12.07,2013-10-30 11:25:00,
2013-10-30 07:30:00,50.9,23.5,17.72,South,183,0.0,0.0,34,0.00,,---,0.00,VWS V12.07,2013-10-30 11:30:00,
2013-10-30 07:35:00,50.4,22.4,17.72,South,175,0.0,0.0,33,0.00,,---,0.00,VWS V12.07,2013-10-30 11:35:00,
2013-10-30 07:40:00,50.2,22.9,17.72,South,169,0.0,0.0,34,0.00,,---,0.00,VWS V12.07,2013-10-30 11:40:00,
2013-10-30 07:50:00,50.7,24.8,17.72,SSW,207,0.0,0.0,36,0.00,,---,0.00,VWS V12.07,2013-10-30 11:50:00,
2013-10-30 07:55:00,50.7,24.8,17.72,South,186,0.0,0.0,36,0.00,,---,0.00,VWS V12.07,2013-10-30 11:55:00,
2013-10-30 08:00:00,50.9,24.9,17.72,SSE,165,0.0,0.0,36,0.00,,---,0.00,VWS V12.07,2013-10-30 12:00:00,
2013-10-30 08:05:00,51.1,25.1,17.72,SSE,150,0.0,0.0,36,0.00,,---,0.00,VWS V12.07,2013-10-30 12:05:00,
2013-10-30 08:10:00,51.4,25.4,17.72,South,183,0.0,0.0,36,0.00,,---,0.00,VWS V12.07,2013-10-30 12:10:00,
2013-10-30 08:15:00,51.6,25.6,17.72,WSW,254,0.0,0.0,36,0.00,,---,0.00,VWS V12.07,2013-10-30 12:15:00,
2013-10-30 08:20:00,52.0,25.9,17.72,WSW,254,0.0,0.0,36,0.00,,---,0.00,VWS V12.07,2013-10-30 12:20:00,
2013-10-30 08:25:00,52.2,26.0,17.72,West,263,0.0,0.0,36,0.00,,---,0.00,VWS V12.07,2013-10-30 12:25:00,
2013-10-30 08:30:00,52.3,26.2,17.72,West,263,0.0,0.0,36,0.00,,---,0.00,VWS V12.07,2013-10-30 12:30:00,
2013-10-30 08:35:00,52.5,26.4,17.72,WSW,248,0.0,0.0,36,0.00,,---,0.00,VWS V12.07,2013-10-30 12:35:00,
2013-10-30 08:40:00,52.7,26.5,17.72,SSW,200,0.0,0.0,36,0.00,,---,0.00,VWS V12.07,2013-10-30 12:40:00,
2013-10-30 08:45:00,52.9,26.7,17.72,SSW,200,0.0,0.0,36,0.00,,---,0.00,VWS V12.07,2013-10-30 12:45:00,
2013-10-30 08:50:00,53.1,26.8,17.72,SW,227,0.0,0.0,36,0.00,,---,0.00,VWS V12.07,2013-10-30 12:50:00,
2013-10-30 08:55:00,53.2,27.0,17.72,SW,216,0.0,0.0,36,0.00,,---,0.00,VWS V12.07,2013-10-30 12:55:00,
2013-10-30 09:00:00,53.4,27.1,17.72,South,191,0.0,0.0,36,0.00,,---,0.00,VWS V12.07,2013-10-30 13:00:00,
2013-10-30 09:05:00,53.6,27.3,17.72,SSE,150,4.5,4.5,36,0.00,,---,0.00,VWS V12.07,2013-10-30 13:05:00,
2013-10-30 09:10:00,54.0,27.6,17.72,South,169,4.0,4.9,36,0.00,,---,0.00,VWS V12.07,2013-10-30 13:10:00,
2013-10-30 09:15:00,54.1,27.8,17.72,SSE,164,4.9,6.3,36,0.00,,---,0.00,VWS V12.07,2013-10-30 13:15:00,
2013-10-30 09:25:00,54.5,28.1,17.72,South,184,0.0,0.0,36,0.00,,---,0.00,VWS V12.07,2013-10-30 13:25:00,
2013-10-30 09:30:00,54.7,28.3,17.72,South,177,0.0,0.0,36,0.00,,---,0.00,VWS V12.07,2013-10-30 13:30:00,
2013-10-30 09:35:00,54.9,28.4,17.72,SE,127,0.0,0.0,36,0.00,,---,0.00,VWS V12.07,2013-10-30 13:35:00,
2013-10-30 09:40:00,55.0,28.6,17.72,South,175,0.0,4.0,36,0.00,,---,0.00,VWS V12.07,2013-10-30 13:40:00,
2013-10-30 09:45:00,55.0,28.6,17.72,South,181,0.0,0.0,36,0.00,,---,0.00,VWS V12.07,2013-10-30 13:45:00,
2013-10-30 09:50:00,55.0,28.6,17.72,SSW,198,0.0,0.0,36,0.00,,---,0.00,VWS V12.07,2013-10-30 13:50:00,
2013-10-30 09:55:00,55.2,28.8,17.72,South,185,0.0,0.0,36,0.00,,---,0.00,VWS V12.07,2013-10-30 13:55:00,
2013-10-30 10:00:00,55.2,28.8,17.72,SSE,167,0.0,0.0,36,0.00,,---,0.00,VWS V12.07,2013-10-30 14:00:00,
2013-10-30 10:05:00,55.2,28.8,17.72,South,183,0.0,0.0,36,0.00,,---,0.00,VWS V12.07,2013-10-30 14:05:00,
2013-10-30 10:10:00,55.4,28.9,17.72,SSE,167,0.0,0.0,36,0.00,,---,0.00,VWS V12.07,2013-10-30 14:10:00,
2013-10-30 10:15:00,55.6,29.1,17.72,South,175,0.0,0.0,36,0.00,,---,0.00,VWS V12.07,2013-10-30 14:15:00,
2013-10-30 10:20:00,55.8,29.2,17.72,South,181,0.0,0.0,36,0.00,,---,0.00,VWS V12.07,2013-10-30 14:20:00,
2013-10-30 10:30:00,55.9,29.4,17.72,SSW,198,0.0,0.0,36,0.00,,---,0.00,VWS V12.07,2013-10-30 14:30:00,
2013-10-30 10:35:00,56.1,29.5,17.72,South,187,0.0,0.0,36,0.00,,---,0.00,VWS V12.07,2013-10-30 14:35:00,
2013-10-30 10:40:00,56.3,29.7,17.72,SSE,165,0.0,0.0,36,0.00,,---,0.00,VWS V12.07,2013-10-30 14:40:00,
2013-10-30 10:45:00,56.3,29.7,17.72,SSW,198,0.0,0.0,36,0.00,,---,0.00,VWS V12.07,2013-10-30 14:45:00,
2013-10-30 10:50:00,56.3,29.7,17.72,SW,220,0.0,0.0,36,0.00,,---,0.00,VWS V12.07,2013-10-30 14:50:00,
2013-10-30 10:55:00,56.3,29.7,17.72,SSW,202,0.0,0.0,36,0.00,,---,0.00,VWS V12.07,2013-10-30 14:55:00,
2013-10-30 11:00:00,56.7,30.0,17.72,South,176,0.0,0.0,36,0.00,,---,0.00,VWS V12.07,2013-10-30 15:00:00,
2013-10-30 11:05:00,56.8,30.2,17.72,South,172,0.0,0.0,36,0.00,,---,0.00,VWS V12.07,2013-10-30 15:05:00,
2013-10-30 11:10:00,56.8,30.2,17.72,SSW,202,4.0,5.4,36,0.00,,---,0.00,VWS V12.07,2013-10-30 15:10:00,
2013-10-30 11:15:00,56.8,30.2,17.72,South,182,0.0,0.0,36,0.00,,---,0.00,VWS V12.07,2013-10-30 15:15:00,
2013-10-30 11:20:00,56.8,30.2,17.72,SSW,205,0.0,0.0,36,0.00,,---,0.00,VWS V12.07,2013-10-30 15:20:00,
2013-10-30 11:25:00,56.7,30.0,17.72,South,189,0.0,0.0,36,0.00,,---,0.00,VWS V12.07,2013-10-30 15:25:00,
2013-10-30 11:35:00,56.8,30.2,17.72,South,181,0.0,0.0,36,0.00,,---,0.00,VWS V12.07,2013-10-30 15:35:00,
2013-10-30 11:40:00,57.2,30.5,17.72,SSE,155,0.0,0.0,36,0.00,,---,0.00,VWS V12.07,2013-10-30 15:40:00,
2013-10-30 11:45:00,57.4,30.7,17.72,South,173,4.9,4.9,36,0.00,,---,0.00,VWS V12.07,2013-10-30 15:45:00,
2013-10-30 11:55:00,57.4,30.7,17.72,South,170,0.0,0.0,36,0.00,,---,0.00,VWS V12.07,2013-10-30 15:55:00,
2013-10-30 12:00:00,57.6,30.8,17.72,South,191,2.2,3.1,36,0.00,,---,0.00,VWS V12.07,2013-10-30 16:00:00,
2013-10-30 12:10:00,58.5,31.6,17.72,SE,146,0.0,3.6,36,0.00,,---,0.00,VWS V12.07,2013-10-30 16:10:00,
2013-10-30 12:15:00,59.4,33.1,17.72,SE,139,0.0,4.9,37,0.00,,---,0.00,VWS V12.07,2013-10-30 16:15:00,
2013-10-30 12:25:00,60.1,32.4,17.72,SE,142,2.7,4.0,35,0.00,,---,0.00,VWS V12.07,2013-10-30 16:25:00,
2013-10-30 12:30:00,60.1,32.4,17.72,SE,133,4.0,4.9,35,0.00,,---,0.00,VWS V12.07,2013-10-30 16:30:00,
2013-10-30 12:35:00,60.1,32.4,17.72,South,181,2.7,4.0,35,0.00,,---,0.00,VWS V12.07,2013-10-30 16:35:00,
2013-10-30 12:45:00,59.7,32.0,17.72,SSW,196,0.0,3.6,35,0.00,,---,0.00,VWS V12.07,2013-10-30 16:45:00,
2013-10-30 12:50:00,59.5,31.9,17.72,SSE,155,4.0,4.0,35,0.00,,---,0.00,VWS V12.07,2013-10-30 16:50:00,
2013-10-30 12:55:00,59.7,32.0,17.72,SSE,154,5.4,5.4,35,0.00,,---,0.00,VWS V12.07,2013-10-30 16:55:00,
2013-10-30 13:00:00,59.9,32.2,17.72,SE,146,4.5,4.5,35,0.00,,---,0.00,VWS V12.07,2013-10-30 17:00:00,
2013-10-30 13:05:00,60.1,32.4,17.72,SSE,148,3.1,5.8,35,0.00,,---,0.00,VWS V12.07,2013-10-30 17:05:00,
2013-10-30 13:10:00,60.1,32.4,17.72,South,173,4.0,4.0,35,0.00,,---,0.00,VWS V12.07,2013-10-30 17:10:00,
2013-10-30 13:15:00,60.1,32.4,17.72,SSE,167,3.6,5.4,35,0.00,,---,0.00,VWS V12.07,2013-10-30 17:15:00,
2013-10-30 13:20:00,59.9,31.5,17.72,South,180,5.4,6.3,34,0.00,,---,0.00,VWS V12.07,2013-10-30 17:20:00,
2013-10-30 13:25:00,59.7,31.3,17.72,South,185,3.6,4.9,34,0.00,,---,0.00,VWS V12.07,2013-10-30 17:25:00,
2013-10-30 13:30:00,59.7,31.3,17.72,South,179,5.4,5.4,34,0.00,,---,0.00,VWS V12.07,2013-10-30 17:30:00,
2013-10-30 13:40:00,59.5,31.2,17.72,SSE,163,6.3,6.3,34,0.00,,---,0.00,VWS V12.07,2013-10-30 17:40:00,
2013-10-30 13:45:00,59.7,31.3,17.72,South,189,4.9,6.3,34,0.00,,---,0.00,VWS V12.07,2013-10-30 17:45:00,
2013-10-30 13:50:00,59.7,31.3,17.72,SSE,159,4.0,4.9,34,0.00,,---,0.00,VWS V12.07,2013-10-30 17:50:00,
2013-10-30 13:55:00,59.9,31.5,17.72,SE,141,3.6,6.3,34,0.00,,---,0.00,VWS V12.07,2013-10-30 17:55:00,
2013-10-30 14:00:00,60.1,31.6,17.72,SE,145,3.1,3.1,34,0.00,,---,0.00,VWS V12.07,2013-10-30 18:00:00,
2013-10-30 14:05:00,60.3,31.8,17.72,South,175,3.6,5.8,34,0.00,,---,0.00,VWS V12.07,2013-10-30 18:05:00,
2013-10-30 14:10:00,60.4,32.0,17.72,SSE,162,4.0,7.6,34,0.00,,---,0.00,VWS V12.07,2013-10-30 18:10:00,
2013-10-30 14:15:00,60.4,31.2,17.72,SSE,165,4.0,5.8,33,0.00,,---,0.00,VWS V12.07,2013-10-30 18:15:00,
2013-10-30 14:20:00,60.1,30.9,17.72,SSE,157,3.6,3.6,33,0.00,,---,0.00,VWS V12.07,2013-10-30 18:20:00,
2013-10-30 14:25:00,60.1,30.9,17.72,South,187,5.4,5.8,33,0.00,,---,0.00,VWS V12.07,2013-10-30 18:25:00,
2013-10-30 14:30:00,59.9,30.8,17.72,South,183,3.6,6.3,33,0.00,,---,0.00,VWS V12.07,2013-10-30 18:30:00,
2013-10-30 14:40:00,59.9,31.5,17.72,South,182,5.4,5.8,34,0.00,,---,0.00,VWS V12.07,2013-10-30 18:40:00,
2013-10-30 14:50:00,60.4,32.0,17.72,ESE,115,5.4,5.8,34,0.00,,---,0.00,VWS V12.07,2013-10-30 18:50:00,
2013-10-30 14:55:00,60.4,32.0,17.72,SSE,165,3.6,6.3,34,0.00,,---,0.00,VWS V12.07,2013-10-30 18:55:00,
2013-10-30 15:05:00,60.6,32.1,17.72,SSE,161,3.6,3.6,34,0.00,,---,0.00,VWS V12.07,2013-10-30 19:05:00,
2013-10-30 15:10:00,60.4,32.0,17.72,SSE,166,5.4,5.4,34,0.00,,---,0.00,VWS V12.07,2013-10-30 19:10:00,
2013-10-30 15:15:00,60.4,32.0,17.72,SSE,160,5.4,6.3,34,0.00,,---,0.00,VWS V12.07,2013-10-30 19:15:00,
2013-10-30 15:20:00,60.6,32.1,17.72,South,169,4.5,6.3,34,0.00,,---,0.00,VWS V12.07,2013-10-30 19:20:00,
2013-10-30 15:25:00,60.8,32.3,17.72,South,187,5.8,7.2,34,0.00,,---,0.00,VWS V12.07,2013-10-30 19:25:00,
2013-10-30 15:30:00,60.8,32.3,17.72,South,169,6.7,6.7,34,0.00,,---,0.00,VWS V12.07,2013-10-30 19:30:00,
2013-10-30 15:35:00,60.6,32.1,17.72,South,173,5.4,7.6,34,0.00,,---,0.00,VWS V12.07,2013-10-30 19:35:00,
2013-10-30 15:40:00,60.6,32.1,17.72,SSE,164,3.6,6.3,34,0.00,,---,0.00,VWS V12.07,2013-10-30 19:40:00,
2013-10-30 15:50:00,60.6,32.1,17.72,South,177,5.8,6.3,34,0.00,,---,0.00,VWS V12.07,2013-10-30 19:50:00,
2013-10-30 15:55:00,60.6,32.1,17.72,South,181,5.8,5.8,34,0.00,,---,0.00,VWS V12.07,2013-10-30 19:55:00,
2013-10-30 16:00:00,60.6,32.1,17.72,South,177,4.9,7.2,34,0.00,,---,0.00,VWS V12.07,2013-10-30 20:00:00,
2013-10-30 16:05:00,61.0,32.4,17.72,SSE,160,4.0,8.3,34,0.00,,---,0.00,VWS V12.07,2013-10-30 20:05:00,
2013-10-30 16:10:00,61.3,32.8,17.72,South,188,5.4,7.2,34,0.00,,---,0.00,VWS V12.07,2013-10-30 20:10:00,
2013-10-30 16:15:00,61.5,32.9,17.72,SSE,149,4.9,6.3,34,0.00,,---,0.00,VWS V12.07,2013-10-30 20:15:00,
2013-10-30 16:20:00,61.7,33.1,17.72,South,171,4.9,8.1,34,0.00,,---,0.00,VWS V12.07,2013-10-30 20:20:00,
2013-10-30 16:25:00,61.3,32.8,17.72,SSE,155,5.8,8.1,34,0.00,,---,0.00,VWS V12.07,2013-10-30 20:25:00,
2013-10-30 16:30:00,61.2,32.6,17.72,SSE,165,2.7,6.3,34,0.00,,---,0.00,VWS V12.07,2013-10-30 20:30:00,
2013-10-30 16:35:00,61.2,32.6,17.72,South,169,4.9,6.3,34,0.00,,---,0.00,VWS V12.07,2013-10-30 20:35:00,
2013-10-30 16:45:00,61.2,32.6,17.72,SSE,167,4.9,5.4,34,0.00,,---,0.00,VWS V12.07,2013-10-30 20:45:00,
2013-10-30 16:50:00,61.3,32.8,17.72,SSE,158,5.8,6.3,34,0.00,,---,0.00,VWS V12.07,2013-10-30 20:50:00,
2013-10-30 16:55:00,61.3,32.8,17.72,East,99,4.0,4.0,34,0.00,,---,0.00,VWS V12.07,2013-10-30 20:55:00,
2013-10-30 17:00:00,61.3,32.8,17.72,South,188,4.0,7.6,34,0.00,,---,0.00,VWS V12.07,2013-10-30 21:00:00,
2013-10-30 17:05:00,61.2,32.6,17.72,South,181,4.0,4.0,34,0.00,,---,0.00,VWS V12.07,2013-10-30 21:05:00,
2013-10-30 17:15:00,61.2,32.6,17.72,South,184,6.3,7.6,34,0.00,,---,0.00,VWS V12.07,2013-10-30 21:15:00,
2013-10-30 17:20:00,61.0,32.4,17.72,SSE,168,2.7,6.7,34,0.00,,---,0.00,VWS V12.07,2013-10-30 21:20:00,
2013-10-30 17:30:00,61.2,32.6,17.72,South,191,3.6,6.3,34,0.00,,---,0.00,VWS V12.07,2013-10-30 21:30:00,
2013-10-30 17:35:00,61.2,32.6,17.72,South,181,5.4,8.7,34,0.00,,---,0.00,VWS V12.07,2013-10-30 21:35:00,
2013-10-30 17:40:00,61.2,33.3,17.72,South,176,5.4,6.3,35,0.00,,---,0.00,VWS V12.07,2013-10-30 21:40:00,
2013-10-30 17:45:00,61.3,33.5,17.72,South,171,4.9,5.8,35,0.00,,---,0.00,VWS V12.07,2013-10-30 21:45:00,
2013-10-30 17:50:00,61.3,33.5,17.72,South,180,3.6,5.8,35,0.00,,---,0.00,VWS V12.07,2013-10-30 21:50:00,
2013-10-30 17:55:00,61.3,33.5,17.72,SSE,162,4.9,5.8,35,0.00,,---,0.00,VWS V12.07,2013-10-30 21:55:00,
2013-10-30 18:05:00,61.3,33.5,17.72,SSE,158,5.4,6.3,35,0.00,,---,0.00,VWS V12.07,2013-10-30 22:05:00,
2013-10-30 18:10:00,61.3,33.5,17.72,South,175,5.8,5.8,35,0.00,,---,0.00,VWS V12.07,2013-10-30 22:10:00,
2013-10-30 18:15:00,61.3,33.5,17.72,South,182,3.1,3.1,35,0.00,,---,0.00,VWS V12.07,2013-10-30 22:15:00,
2013-10-30 18:25:00,61.3,33.5,17.72,South,180,2.7,5.8,35,0.00,,---,0.00,VWS V12.07,2013-10-30 22:25:00,
2013-10-30 18:35:00,61.2,34.0,17.72,South,181,3.1,3.1,36,0.00,,---,0.00,VWS V12.07,2013-10-30 22:35:00,
2013-10-30 18:40:00,61.2,34.0,17.72,SE,139,6.3,6.3,36,0.00,,---,0.00,VWS V12.07,2013-10-30 22:40:00,
2013-10-30 18:45:00,61.2,34.0,17.72,SSE,154,2.7,7.2,36,0.00,,---,0.00,VWS V12.07,2013-10-30 22:45:00,
2013-10-30 18:55:00,61.3,34.2,17.72,South,181,0.0,0.0,36,0.00,,---,0.00,VWS V12.07,2013-10-30 22:55:00,
2013-10-30 19:00:00,61.3,34.2,17.72,SSE,156,0.0,0.0,36,0.00,,---,0.00,VWS V12.07,2013-10-30 23:00:00,
2013-10-30 19:10:00,61.5,35.0,17.72,South,187,0.0,6.3,37,0.00,,---,0.00,VWS V12.07,2013-10-30 23:10:00,
2013-10-30 19:15:00,61.5,35.0,17.72,South,178,0.0,0.0,37,0.00,,---,0.00,VWS V12.07,2013-10-30 23:15:00,
2013-10-30 19:20:00,61.5,35.0,17.72,South,183,0.0,7.2,37,0.00,,---,0.00,VWS V12.07,2013-10-30 23:20:00,
2013-10-30 19:25:00,61.5,35.7,17.72,South,183,0.0,0.0,38,0.00,,---,0.00,VWS V12.07,2013-10-30 23:25:00,
2013-10-30 19:30:00,61.7,35.9,17.72,SSE,165,0.0,0.0,38,0.00,,---,0.00,VWS V12.07,2013-10-30 23:30:00,
2013-10-30 19:35:00,61.7,35.9,17.72,South,172,0.0,0.0,38,0.00,,---,0.00,VWS V12.07,2013-10-30 23:35:00,
2013-10-30 19:40:00,61.7,36.5,17.72,South,173,0.0,5.4,39,0.00,,---,0.00,VWS V12.07,2013-10-30 23:40:00,
2013-10-30 19:45:00,61.9,37.3,17.72,South,173,0.0,0.0,40,0.00,,---,0.00,VWS V12.07,2013-10-30 23:45:00,
2013-10-30 19:50:00,61.9,37.3,17.72,South,173,0.0,0.0,40,0.00,,---,0.00,VWS V12.07,2013-10-30 23:50:00,
2013-10-30 19:55:00,61.9,38.0,17.72,South,185,0.0,0.0,41,0.00,,---,0.00,VWS V12.07,2013-10-30 23:55:00,
2013-10-30 20:00:00,61.9,38.6,17.72,South,184,0.0,0.0,42,0.00,,---,0.00,VWS V12.07,2013-10-31 00:00:00,
2013-10-30 20:05:00,62.1,39.3,17.72,South,185,0.0,0.0,43,0.00,,---,0.00,VWS V12.07,2013-10-31 00:05:00,
2013-10-30 20:10:00,62.1,39.9,17.72,South,171,0.0,0.0,44,0.00,,---,0.00,VWS V12.07,2013-10-31 00:10:00,
2013-10-30 20:15:00,62.1,40.5,17.72,SW,221,0.0,0.0,45,0.00,,---,0.00,VWS V12.07,2013-10-31 00:15:00,
2013-10-30 20:20:00,62.2,41.8,17.72,South,190,0.0,0.0,47,0.00,,---,0.00,VWS V12.07,2013-10-31 00:20:00,
2013-10-30 20:25:00,62.4,42.5,17.72,SSW,202,0.0,0.0,48,0.00,,---,0.00,VWS V12.07,2013-10-31 00:25:00,
2013-10-30 20:30:00,62.4,42.5,17.72,SSW,195,0.0,0.0,48,0.00,,---,0.00,VWS V12.07,2013-10-31 00:30:00,
2013-10-30 20:35:00,62.4,43.5,17.72,South,172,0.0,0.0,50,0.00,,---,0.00,VWS V12.07,2013-10-31 00:35:00,
2013-10-30 20:45:00,62.6,44.2,17.72,SSW,202,0.0,0.0,51,0.00,,---,0.00,VWS V12.07,2013-10-31 00:45:00,
2013-10-30 20:55:00,62.6,45.7,17.72,South,173,0.0,0.0,54,0.00,,---,0.00,VWS V12.07,2013-10-31 00:55:00,
2013-10-30 21:00:00,62.6,45.7,17.72,South,191,0.0,0.0,54,0.00,,---,0.00,VWS V12.07,2013-10-31 01:00:00,
2013-10-30 21:10:00,62.6,46.2,17.72,SW,220,0.0,0.0,55,0.00,,---,0.00,VWS V12.07,2013-10-31 01:10:00,
2013-10-30 21:20:00,62.8,47.8,17.72,South,181,5.4,6.3,58,0.00,,---,0.00,VWS V12.07,2013-10-31 01:20:00,
2013-10-30 21:25:00,62.6,47.2,17.72,South,183,5.8,7.6,57,0.00,,---,0.00,VWS V12.07,2013-10-31 01:25:00,
2013-10-30 21:30:00,62.6,47.2,17.72,South,174,5.8,6.3,57,0.00,,---,0.00,VWS V12.07,2013-10-31 01:30:00,
2013-10-30 21:40:00,62.6,47.6,17.72,South,183,3.1,6.3,58,0.00,,---,0.00,VWS V12.07,2013-10-31 01:40:00,
2013-10-30 21:45:00,62.8,47.8,17.72,South,181,5.4,6.3,58,0.00,,---,0.00,VWS V12.07,2013-10-31 01:45:00,
2013-10-30 21:50:00,62.8,47.8,17.72,South,185,6.7,8.1,58,0.00,,---,0.00,VWS V12.07,2013-10-31 01:50:00,
2013-10-30 22:00:00,63.1,49.5,17.72,South,184,5.4,8.7,61,0.00,,---,0.00,VWS V12.07,2013-10-31 02:00:00,
2013-10-30 22:10:00,63.1,48.6,17.72,South,170,5.4,7.2,59,0.00,,---,0.00,VWS V12.07,2013-10-31 02:10:00,
2013-10-30 22:15:00,63.0,47.5,17.72,South,173,6.7,8.7,57,0.00,,---,0.00,VWS V12.07,2013-10-31 02:15:00,
2013-10-30 22:20:00,63.0,46.1,17.72,SSW,203,7.6,8.3,54,0.00,,---,0.00,VWS V12.07,2013-10-31 02:20:00,
2013-10-30 22:30:00,62.8,44.9,17.72,South,176,8.3,8.7,52,0.00,,---,0.00,VWS V12.07,2013-10-31 02:30:00,
2013-10-30 22:35:00,62.8,43.9,17.72,SSE,159,6.3,8.7,50,0.00,,---,0.00,VWS V12.07,2013-10-31 02:35:00,
2013-10-30 22:45:00,63.0,45.1,17.72,SSW,195,3.1,8.7,52,0.00,,---,0.00,VWS V12.07,2013-10-31 02:45:00,
2013-10-30 22:50:00,63.1,45.2,17.72,SSW,199,0.0,9.6,52,0.00,,---,0.00,VWS V12.07,2013-10-31 02:50:00,
2013-10-30 22:55:00,63.1,44.7,17.72,SSW,197,2.7,2.7,51,0.00,,---,0.00,VWS V12.07,2013-10-31 02:55:00,
2013-10-30 23:00:00,63.1,45.2,17.72,WSW,245,0.0,7.6,52,0.00,,---,0.00,VWS V12.07,2013-10-31 03:00:00,
2013-10-30 23:05:00,63.5,46.1,17.72,SW,220,0.0,0.0,53,0.00,,---,0.00,VWS V12.07,2013-10-31 03:05:00,
2013-10-30 23:10:00,63.5,45.6,17.72,SW,234,5.8,5.8,52,0.00,,---,0.00,VWS V12.07,2013-10-31 03:10:00,
2013-10-30 23:20:00,63.1,43.2,17.72,SSW,210,6.3,6.3,48,0.00,,---,0.00,VWS V12.07,2013-10-31 03:20:00,
2013-10-30 23:25:00,63.1,43.2,17.72,SW,220,5.8,8.7,48,0.00,,---,0.00,VWS V12.07,2013-10-31 03:25:00,
2013-10-30 23:30:00,63.0,42.4,17.72,SW,227,8.1,8.7,47,0.00,,---,0.00,VWS V12.07,2013-10-31 03:30:00,
2013-10-30 23:35:00,63.0,43.0,17.72,SW,214,5.8,8.1,48,0.00,,---,0.00,VWS V12.07,2013-10-31 03:35:00,
2013-10-30 23:40:00,63.0,43.0,17.72,SW,222,4.0,4.9,48,0.00,,---,0.00,VWS V12.07,2013-10-31 03:40:00,
2013-10-30 23:45:00,63.0,43.0,17.72,SSW,201,0.0,5.4,48,0.00,,---,0.00,VWS V12.07,2013-10-31 03:45:00,
2013-10-30 23:55:00,62.8,42.3,17.72,SSW,207,0.0,0.0,47,0.00,,---,0.00,VWS V12.07,2013-10-31 03:55:00,